This demonstration page uses our WeatherBlox Daily Observations layout. Learn more.

40.92945, -100.16068

Hourly Observations for July 26, 2015

Temp ( °F °C ) Dew Point ( °F °C ) Humidity (%) Winds ( mph kmh ) Pressure ( in mb ) Visibility ( mi km ) Precip ( " mm )
12:15 am 00:15 Clear 73 22.7 71 21.4 92 92 Calm 29.8 1009 7 11.26538 N/A
12:35 am 00:35 Clear 73 22.5 70 21.2 92 92 Calm 29.83 1010 7 11.26538 N/A
12:55 am 00:55 Clear 72 22.2 70 21 93 93 Calm 29.83 1010 7 11.26538 N/A
1:15 am 01:15 Clear with Mist and Fog 71 21.7 69 20.6 94 94 Calm 29.85 1011 5 8.0467 N/A
1:35 am 01:35 Clear with Mist and Fog 71 21.4 69 20.4 94 94 Calm 29.83 1010 4 6.43736 N/A
1:55 am 01:55 Clear with Mist and Fog 69 20.6 67 19.7 95 95 Calm 29.83 1010 5 8.0467 N/A
2:15 am 02:15 Mostly Cloudy with Mist and Fog 69 20.3 67 19.5 95 95 N 3 6 29.85 1011 1.25 2.011675 N/A
2:35 am 02:35 Clear with Mist and Fog 68 20.1 67 19.4 96 96 Calm 29.83 1010 3 4.82802 N/A
2:55 am 02:55 Mostly Cloudy with Fog 67 19.6 66 19 96 96 Calm 29.83 1010 0.5 0.80467 N/A
3:15 am 03:15 Partly Cloudy with Mist and Fog 67 19.7 66 19.1 96 96 Calm 29.83 1010 1.5 2.41401 N/A
3:35 am 03:35 Mostly Cloudy with Mist and Fog 67 19.2 65 18.6 96 96 Calm 29.83 1010 1.25 2.011675 N/A
3:55 am 03:55 Clear with Mist and Fog 67 19.2 65 18.6 96 96 Calm 29.83 1010 2.5 4.02335 N/A
4:15 am 04:15 Clear with Mist and Fog 66 19 65 18.5 97 97 NNE 6 9 29.83 1010 2 3.21868 N/A
4:35 am 04:35 Clear with Mist and Fog 66 19 65 18.5 97 97 Calm 29.83 1010 3 4.82802 N/A
4:55 am 04:55 Partly Cloudy with Mist and Fog 66 19.1 65 18.6 97 97 N 3 6 29.83 1010 0.75 1.207005 N/A
5:15 am 05:15 Mostly Cloudy with Mist and Fog 67 19.3 66 18.8 97 97 Calm 29.83 1010 1.75 2.816345 N/A
5:35 am 05:35 Clear with Mist and Fog 66 19 65 18.5 97 97 Calm 29.83 1010 2.5 4.02335 N/A
5:55 am 05:55 Clear with Mist and Fog 66 18.7 65 18.2 97 97 S 3 6 29.83 1010 3 4.82802 N/A
6:15 am 06:15 Clear with Mist and Fog 65 18.6 65 18.1 97 97 Calm 29.83 1010 4 6.43736 N/A
6:35 am 06:35 Sunny with Mist and Fog 65 18.3 64 17.8 97 97 SSW 6 9 29.88 1012 4 6.43736 N/A
6:55 am 06:55 Cloudy with Fog 66 18.7 65 18.2 97 97 Calm 29.88 1012 0.25 0.402335 0 0
7:15 am 07:15 Cloudy with Mist and Fog 66 19 65 18.5 97 97 Calm 29.88 1012 3 4.82802 N/A
7:35 am 07:35 Cloudy with Mist and Fog 67 19.5 66 19 97 97 Calm 29.85 1011 4 6.43736 N/A
7:55 am 07:55 Cloudy with Mist and Fog 68 20.2 67 19.7 97 97 Calm 29.85 1011 5 8.0467 N/A
8:15 am 08:15 Cloudy with Mist and Fog 70 20.9 69 20.4 97 97 Calm 29.85 1011 2.5 4.02335 N/A
8:35 am 08:35 Cloudy with Fog 71 21.4 70 20.9 97 97 Calm 29.85 1011 0.25 0.402335 N/A
8:55 am 08:55 Cloudy with Fog 71 21.5 70 21 97 97 Calm 29.85 1011 5 8.0467 N/A
9:15 am 09:15 Cloudy with Fog 71 21.8 70 21.3 97 97 SE 5 7 29.88 1012 0.5 0.80467 N/A
9:35 am 09:35 Cloudy with Mist and Fog 72 22.2 71 21.7 97 97 Calm 29.88 1012 3 4.82802 N/A
9:55 am 09:55 Cloudy with Mist and Fog 73 22.5 72 22 97 97 SE 3 6 29.88 1012 4 6.43736 N/A
10:15 am 10:15 Cloudy with Mist and Fog 73 23 72 22.4 96 96 ESE 5 7 29.83 1010 5 8.0467 N/A
10:35 am 10:35 Cloudy with Mist and Fog 74 23.4 73 22.6 95 95 Calm 29.88 1012 5 8.0467 N/A
10:55 am 10:55 Mostly Cloudy 76 24.5 74 23.1 92 92 Calm 29.85 1011 7 11.26538 N/A
11:15 am 11:15 Mostly Cloudy 78 25.5 74 23.2 87 87 SSW 3 6 29.85 1011 7 11.26538 N/A
11:35 am 11:35 Partly Cloudy 80 26.7 74 23.5 83 83 Calm 29.83 1010 7 11.26538 N/A
11:55 am 11:55 Sunny 83 28.1 75 23.8 78 78 SW 6 9 29.83 1010 7 11.26538 N/A
12:15 pm 12:15 Sunny 84 28.7 75 24 76 76 Calm 29.8 1009 10 16.0934 N/A
12:35 pm 12:35 Sunny 85 29.7 75 23.7 70 70 E 5 7 29.77 1008 10 16.0934 N/A
12:55 pm 12:55 Sunny 87 30.7 72 22.2 61 61 SSE 6 9 29.77 1008 10 16.0934 N/A
1:15 pm 13:15 Sunny 88 30.9 72 22.2 60 60 ESE 5 7 29.77 1008 10 16.0934 N/A
1:35 pm 13:35 Sunny 89 31.7 71 21.6 55 55 ESE 9 15 29.77 1008 10 16.0934 N/A
1:55 pm 13:55 Sunny 89 31.8 73 22.6 58 58 SSE 6 9 29.77 1008 10 16.0934 N/A
2:15 pm 14:15 Sunny 91 32.7 73 22.9 56 56 SSE 7 11 29.77 1008 10 16.0934 N/A
2:35 pm 14:35 Sunny 91 32.7 72 22 53 53 SSE 8 13 29.77 1008 10 16.0934 N/A
2:55 pm 14:55 Sunny 92 33.2 72 22.1 52 52 SSE 7 11 29.74 1007 10 16.0934 N/A
3:15 pm 15:15 Sunny 91 32.9 72 22.1 53 53 SE 6 9 29.74 1007 10 16.0934 N/A
3:35 pm 15:35 Sunny 92 33.5 73 22.5 53 53 SSE 6 9 29.71 1006 10 16.0934 N/A
3:55 pm 15:55 Sunny 93 33.8 73 22.8 53 53 SSE 8 13 29.71 1006 10 16.0934 N/A
4:15 pm 16:15 Sunny 93 33.9 73 22.5 51 51 SE 13 20 29.71 1006 10 16.0934 N/A
4:35 pm 16:35 Sunny 94 34.3 71 21.5 47 47 SSE 10 17 29.68 1005 10 16.0934 N/A
4:55 pm 16:55 Sunny 93 33.9 72 22.2 50 50 SE 9 15 29.68 1005 10 16.0934 N/A
5:15 pm 17:15 Sunny 92 33.6 72 22.3 52 52 SE 10 17 29.68 1005 10 16.0934 N/A
5:35 pm 17:35 Sunny 93 33.9 73 22.5 51 51 SE 13 20 29.68 1005 10 16.0934 N/A
5:55 pm 17:55 Sunny 93 33.9 73 22.7 52 52 SE 13 20 29.68 1005 10 16.0934 N/A
6:15 pm 18:15 Sunny 92 33.3 73 23 55 55 SE 10 17 29.71 1006 10 16.0934 N/A
6:35 pm 18:35 Sunny 91 32.7 73 22.6 55 55 SE 15 24 29.71 1006 10 16.0934 N/A
6:55 pm 18:55 Sunny 90 32.4 73 22.7 57 57 SE 12 19 29.68 1005 10 16.0934 N/A
7:15 pm 19:15 Sunny 90 32 73 23 59 59 SE 13 20 29.71 1006 10 16.0934 N/A
7:35 pm 19:35 Sunny 88 31.3 74 23.1 62 62 SE 12 19 29.71 1006 10 16.0934 N/A
7:55 pm 19:55 Sunny 87 30.8 74 23.2 64 64 SE 9 15 29.71 1006 10 16.0934 N/A
8:15 pm 20:15 Sunny 87 30.4 75 23.7 67 67 SE 10 17 29.71 1006 10 16.0934 N/A
8:35 pm 20:35 Sunny 86 29.8 75 23.9 71 71 SE 8 13 29.71 1006 10 16.0934 N/A
8:55 pm 20:55 Sunny 85 29.3 75 24.1 74 74 SE 8 13 29.74 1007 10 16.0934 N/A
9:15 pm 21:15 Clear 84 28.7 75 23.7 74 74 S 3 6 29.77 1008 10 16.0934 N/A
9:35 pm 21:35 Clear with Nearby Thunderstorms 82 27.9 75 24 79 79 SSW 5 7 29.8 1009 10 16.0934 N/A
9:55 pm 21:55 Partly Cloudy with Light Rain 82 27.5 75 24.1 82 82 WSW 3 6 29.8 1009 10 16.0934 N/A
10:15 pm 22:15 Mostly Cloudy with Light Rain 76 24.6 64 17.7 66 66 NW 23 37 29.88 1012 10 16.0934 N/A
10:35 pm 22:35 Cloudy 74 23.4 65 18.3 73 73 WNW 12 19 29.94 1014 10 16.0934 N/A
10:55 pm 22:55 Cloudy with Rain 71 21.5 66 19 86 86 NW 16 26 29.88 1012 7 11.26538 0.03 0.762
11:15 pm 23:15 Cloudy with Light Rain 71 21.5 66 19.1 86 86 W 12 19 29.91 1013 10 16.0934 N/A
11:35 pm 23:35 Cloudy with Thunderstorms 70 21.1 67 19.4 90 90 WSW 6 9 29.91 1013 10 16.0934 0.02 0.508
11:55 pm 23:55 Cloudy with Thunderstorms 70 21 67 19.2 90 90 SSW 6 9 29.91 1013 7 11.26538 0.07 1.778

Powered by AerisWeather